IBONHE1 Weather Reports


time (UTC)temp
C
wind
direction
speed
KPH
gust
KPH
rain 1hr
cm
rain 24hr
cm
rain mn
cm
humidity
%
barometer
mb
20260506203032 11 231 0.0 0.0 0.00 0.08 0.05 76 1061.8
20260506201535 11 231 0.0 0.0 0.00 0.08 0.05 76 1061.8
20260506200031 11 131 0.0 4.8 0.00 0.08 0.05 75 1061.6
20260506194526 11 186 0.0 8.0 0.00 0.08 0.05 76 1061.6
20260506193038 11 269 0.0 1.6 0.00 0.08 0.05 76 1061.5
20260506191522 11 214 0.0 4.8 0.00 0.08 0.05 76 1061.2
20260506190021 11 240 1.6 9.7 0.00 0.08 0.05 75 1061.0
20260506184520 11 257 0.0 4.8 0.00 0.08 0.05 75 1061.0
20260506183019 11 295 1.6 9.7 0.00 0.08 0.05 73 1060.9
20260506181533 12 271 1.6 8.0 0.00 0.08 0.05 71 1060.5
20260506180014 12 295 1.6 9.7 0.00 0.08 0.05 70 1060.4
20260506174512 12 41 3.2 11.3 0.00 0.08 0.05 68 1060.2
20260506173010 12 224 0.0 9.7 0.00 0.08 0.05 67 1060.0
20260506171514 13 321 3.2 6.4 0.00 0.08 0.05 66 1059.8
20260506170007 13 240 1.6 8.0 0.00 0.08 0.05 63 1059.6
20260506164505 13 89 3.2 9.7 0.00 0.08 0.05 61 1059.5
20260506163001 14 114 0.0 8.0 0.00 0.08 0.05 64 1059.3
20260506161559 13 292 4.8 11.3 0.00 0.08 0.05 64 1059.2
20260506160059 14 266 0.0 6.4 0.00 0.08 0.05 66 1059.2
20260506154613 14 90 1.6 9.7 0.00 0.08 0.05 65 1059.2
20260506153057 15 293 1.6 6.4 0.00 0.08 0.05 66 1059.1
20260506151555 15 276 1.6 12.9 0.00 0.08 0.05 64 1059.0
20260506150055 15 255 3.2 12.9 0.00 0.08 0.05 62 1058.9
20260506144558 15 303 0.0 12.9 0.00 0.08 0.05 62 1058.9
20260506143052 15 336 1.6 8.0 0.00 0.08 0.05 63 1058.8
20260506141555 15 207 1.6 9.7 0.00 0.08 0.05 61 1058.9
20260506140053 15 15 1.6 6.4 0.00 0.08 0.05 62 1058.9
20260506134550 15 263 0.0 8.0 0.00 0.08 0.05 63 1058.8
20260506133101 15 70 0.0 8.0 0.00 0.08 0.05 63 1058.8
20260506131546 15 288 1.6 6.4 0.00 0.08 0.05 65 1058.8
20260506130045 15 290 1.6 14.5 0.00 0.08 0.05 65 1058.8
20260506124541 15 278 1.6 8.0 0.00 0.08 0.05 69 1058.7
20260506123042 13 262 0.0 1.6 0.00 0.08 0.05 72 1058.7
20260506121539 13 270 3.2 9.7 0.00 0.08 0.05 71 1058.7
20260506120039 13 280 0.0 8.0 0.00 0.08 0.05 71 1058.6
20260506114541 13 28 1.6 9.7 0.00 0.10 0.05 73 1058.6
20260506113038 13 266 1.6 9.7 0.00 0.10 0.05 73 1058.6
20260506111536 13 312 3.2 8.0 0.00 0.10 0.05 74 1058.6
20260506110042 13 235 3.2 9.7 0.00 0.10 0.05 72 1058.7
20260506104559 14 56 1.6 9.7 0.00 0.10 0.05 73 1058.7
20260506103039 14 328 3.2 11.3 0.00 0.10 0.05 76 1058.8
20260506101532 13 352 1.6 9.7 0.00 0.10 0.05 79 1058.7
20260506100031 13 27 1.6 6.4 0.00 0.10 0.05 82 1058.7
20260506094532 13 329 1.6 9.7 0.00 0.10 0.05 84 1058.7
20260506093021 12 316 1.6 6.4 0.00 0.10 0.05 86 1058.7
20260506091518 11 330 1.6 8.0 0.00 0.10 0.05 89 1058.6
20260506090014 11 254 0.0 6.4 0.00 0.10 0.05 92 1058.5
20260506084512 10 317 1.6 6.4 0.00 0.10 0.05 93 1058.6
20260506083025 10 259 0.0 6.4 0.00 0.10 0.05 93 1058.4
20260506081510 10 208 0.0 4.8 0.00 0.10 0.05 93 1058.3
20260506073009 8 271 0.0 4.8 0.03 0.10 0.05 93 1058.2
20260506071509 9 357 0.0 8.0 0.03 0.10 0.05 93 1058.2
20260506061505 8 358 0.0 4.8 0.00 0.08 0.05 91 1058.0
20260506044612 8 270 1.6 6.4 0.00 0.08 0.05 89 1057.5
20260506043059 8 269 1.6 4.8 0.00 0.08 0.05 89 1057.6
20260506041556 9 224 0.0 1.6 0.00 0.08 0.05 89 1057.5
20260506040056 8 323 0.0 3.2 0.00 0.08 0.05 89 1057.5
20260506034600 9 231 0.0 8.0 0.00 0.13 0.05 88 1057.5
20260506033053 9 32 0.0 11.3 0.00 0.13 0.05 88 1057.6
20260506031555 9 260 0.0 3.2 0.00 0.13 0.05 87 1057.7
20260506030048 9 258 1.6 6.4 0.00 0.13 0.05 87 1057.8
20260506024548 9 340 0.0 4.8 0.00 0.23 0.05 87 1057.8
20260506023047 9 262 0.0 3.2 0.00 0.23 0.05 87 1057.9
20260506021553 9 316 0.0 4.8 0.00 0.23 0.05 87 1057.9
20260506020041 9 243 1.6 9.7 0.00 0.23 0.05 87 1058.0
20260506014540 9 322 0.0 8.0 0.00 0.23 0.05 87 1058.0
20260506013043 9 294 0.0 3.2 0.00 0.23 0.05 87 1058.0
20260506011544 9 339 0.0 3.2 0.00 0.23 0.05 88 1058.1
20260506010046 9 285 1.6 6.4 0.00 0.23 0.05 88 1058.0
20260506004533 9 140 1.6 8.0 0.03 0.23 0.05 89 1058.2
20260506003033 9 270 0.0 1.6 0.03 0.23 0.05 89 1058.3
20260506001531 10 262 0.0 1.6 0.03 0.23 0.05 89 1058.4
20260506000031 10 302 0.0 3.2 0.03 0.23 0.05 89 1058.4
20260505234544 10 270 0.0 4.8 0.00 0.25 0.03 89 1058.5
20260505233029 10 262 0.0 4.8 0.00 0.25 0.03 88 1058.5
20260505231528 10 340 0.0 1.6 0.00 0.25 0.03 88 1058.6
20260505230024 10 283 0.0 3.2 0.00 0.25 0.03 88 1058.7
20260505224529 10 266 0.0 3.2 0.03 0.48 0.03 88 1058.8
20260505223021 10 269 0.0 8.0 0.03 0.48 0.03 88 1058.9
20260505221520 10 260 0.0 8.0 0.05 0.48 0.03 88 1058.8
20260505220016 10 254 0.0 4.8 0.03 0.46 0.00 89 1058.9
20260505214515 10 283 0.0 4.8 0.03 0.94 0.46 90 1059.0
20260505213018 10 246 0.0 0.0 0.03 0.94 0.46 90 1058.9
20260505211532 11 259 0.0 0.0 0.00 0.91 0.43 91 1058.9
20260505210014 11 259 0.0 0.0 0.00 0.91 0.43 91 1059.0
20260505204513 11 259 0.0 0.0 0.00 1.42 0.43 90 1059.0